Simultaneous Nadir Overpasses (SNOs) Predictions

Prediction of SNOs between METOP-B and TERRA Satellite Orbit:

Table of predicted SNOs for the next 14.0 days since TLE Epoch: 10/24/2015
Index Date (METOP-B) Time (METOP-B) Lat,Lon (METOP-B) SZA (METOP-B ) Date (TERRA) Time (TERRA) Lat,Lon (TERRA) SZA (TERRA ) Distance(km) Time Diff (sec)
1 10/25/2015 11:12:42 -81.32,-120.87 83.47 10/25/2015 11:13:13 -81.32,-120.77 83.44 1.75 31
2 10/25/2015 12:03:22 81.33, 46.87 96.60 10/25/2015 12:02:39 81.33, 46.99 96.60 1.95 43
3 10/28/2015 06:47:02 -81.33, -54.12 82.46 10/28/2015 06:47:29 -81.33, -54.21 82.46 1.45 27
4 10/28/2015 07:37:42 81.33, 113.60 97.60 10/28/2015 07:36:55 81.33, 113.52 97.57 1.31 47
5 10/31/2015 02:21:22 -81.33, 12.19 81.55 10/31/2015 02:21:44 -81.33, 12.19 81.54 0.13 22
6 10/31/2015 03:12:02 81.33, 179.88 98.51 10/31/2015 03:11:10 81.33, 179.89 98.49 0.19 52
7 11/02/2015 21:55:43 -81.32, 78.46 80.67 11/02/2015 21:56:00 -81.32, 78.43 80.67 0.92 17
8 11/02/2015 22:46:22 81.33,-113.49 99.44 11/02/2015 22:45:25 81.34,-113.51 99.41 0.72 57
9 11/05/2015 17:30:03 -81.33, 145.07 79.78 11/05/2015 17:30:15 -81.32, 144.89 79.80 3.14 12




NCC Satellite Simultaneous Nadir Overpasses (SNOs) Prediction Service
